This is the latest recevied weather packets stored in our database for station/object NI4CE-11. If no packets are shown the sender has not sent any weather packets the latest 10 day(s).
| Time | Temp. | Humidity | Pressure | Rain* | Wind** | Luminosity | Snow |
|---|---|---|---|---|---|---|---|
| 1777748624 | 30.56° C | 100% | 1011.4 hPa | 0 mm | - | - | - |
| 1777748404 | 30.56° C | 100% | 1011.4 hPa | 0 mm | - | - | - |
| 1777748259 | 29.44° C | 100% | 1011.5 hPa | 0 mm | - | - | - |
| 1777748104 | 29.44° C | 100% | 1011.5 hPa | 0 mm | - | - | - |
| 1777747804 | 30.56° C | 100% | 1011.7 hPa | 0 mm | - | - | - |
| 1777747504 | 30.56° C | 100% | 1011.7 hPa | 0 mm | - | - | - |
| 1777747204 | 30.56° C | 100% | 1011.6 hPa | 0 mm | - | - | - |
| 1777747103 | 30.56° C | 100% | 1011.7 hPa | 0 mm | - | - | - |
| 1777746904 | 30.56° C | 100% | 1011.7 hPa | 0 mm | - | - | - |
| 1777746604 | 30° C | 100% | 1011.7 hPa | 0 mm | - | - | - |
| 1777746532 | 31.11° C | 100% | 1011.6 hPa | 0 mm | - | - | - |
| 1777746304 | 31.11° C | 100% | 1011.6 hPa | 0 mm | - | - | - |
| 1777746004 | 31.11° C | 100% | 1011.7 hPa | 0 mm | - | - | - |
| 1777745704 | 30° C | 100% | 1011.8 hPa | 0 mm | - | - | - |
| 1777745552 | 31.67° C | 100% | 1011.9 hPa | 0 mm | - | - | - |
| 1777745435 | 31.67° C | 100% | 1012 hPa | 0 mm | - | - | - |
| 1777745404 | 31.67° C | 100% | 1011.9 hPa | 0 mm | - | - | - |
| 1777745104 | 31.67° C | 100% | 1012 hPa | 0 mm | - | - | - |
| 1777744804 | 31.67° C | 100% | 1012 hPa | 0 mm | - | - | - |
| 1777744693 | 31.67° C | 100% | 1011.8 hPa | 0 mm | - | - | - |
| 1777744659 | 31.67° C | 100% | 1011.8 hPa | 0 mm | - | - | - |
| 1777744605 | 31.67° C | 100% | 1011.8 hPa | 0 mm | - | - | - |
| 1777744504 | 31.67° C | 100% | 1011.8 hPa | 0 mm | - | - | - |
| 1777744309 | 31.67° C | 100% | 1011.8 hPa | 0 mm | - | - | - |
| 1777744204 | 31.67° C | 100% | 1011.8 hPa | 0 mm | - | - | - |
* Rain latest hour (hover to see other rain measurements)
** Current wind speed in m/s (hover to see current wind gust speed)